Location: Buisson
(44.2787°N, 4.9969°E)
Time: 07:03:23
(UTC+00:00)

USA 234 - Pass Details

Date: 18 April 2021
Orbit: 1102 x 1105 km, 123.0° (Epoch: 18 April)

Event Time Altitude Azimuth Distance (km) Brightness Sun altitude
Rises 03:01:53 0° 50° (NE) 3,927 7.9 -18.3°
Reaches altitude 10° 03:04:27 10° 45° (NE) 2,967 6.8 -18.0°
Maximum altitude 03:10:41 49° 333° (NNW) 1,392 3.8 -17.0°
Enters shadow 03:15:21 18° 267° (W) 2,406 4.5 -16.4°
